| time (UTC) | temp F | wind direction | speed knots | gust knots | rain 1hr in | rain 24hr in | rain mn in | humidity % | barometer mb |
| 20260509080008 | 48 | 166 | 0.0 | 0.0 | 0.00 | 0.01 | 0.00 | 93 | 1014.6 |
| 20260509074507 | 48 | 166 | 0.0 | 0.0 | 0.00 | 0.01 | 0.00 | 93 | 1014.5 |
| 20260509073015 | 48 | 166 | 0.0 | 0.0 | 0.00 | 0.01 | 0.00 | 92 | 1014.4 |
| 20260509071505 | 48 | 166 | 0.0 | 0.0 | 0.00 | 0.01 | 0.00 | 92 | 1014.4 |
| 20260509070009 | 48 | 166 | 0.0 | 0.0 | 0.00 | 0.01 | 0.00 | 92 | 1014.4 |
| 20260509064503 | 47 | 166 | 0.0 | 0.0 | 0.00 | 0.01 | 0.00 | 92 | 1014.5 |
| 20260509063112 | 47 | 166 | 0.0 | 0.0 | 0.00 | 0.01 | 0.00 | 91 | 1014.5 |
| 20260509061618 | 47 | 166 | 0.0 | 0.0 | 0.00 | 0.01 | 0.00 | 91 | 1014.7 |
| 20260509060112 | 47 | 166 | 0.0 | 0.0 | 0.00 | 0.01 | 0.00 | 90 | 1015.0 |
| 20260509054557 | 47 | 166 | 0.0 | 0.0 | 0.00 | 0.01 | 0.00 | 90 | 1014.9 |
| 20260509053056 | 47 | 166 | 0.0 | 0.0 | 0.00 | 0.01 | 0.00 | 90 | 1015.0 |
| 20260509051559 | 47 | 166 | 0.0 | 0.0 | 0.00 | 0.01 | 0.00 | 89 | 1015.0 |
| 20260509050053 | 47 | 166 | 0.0 | 0.0 | 0.00 | 0.01 | 0.00 | 88 | 1014.9 |
| 20260509044551 | 47 | 166 | 0.0 | 0.0 | 0.00 | 0.01 | 0.00 | 87 | 1014.9 |
| 20260509043051 | 48 | 166 | 0.0 | 0.0 | 0.00 | 0.01 | 0.00 | 86 | 1015.0 |
| 20260509041546 | 48 | 166 | 0.0 | 0.0 | 0.00 | 0.01 | 0.00 | 85 | 1015.0 |
| 20260509040044 | 48 | 166 | 0.0 | 0.0 | 0.00 | 0.01 | 0.00 | 85 | 1015.2 |
| 20260509034543 | 49 | 166 | 0.0 | 0.0 | 0.00 | 0.01 | 0.01 | 84 | 1015.2 |
| 20260509033042 | 49 | 166 | 0.0 | 0.0 | 0.00 | 0.01 | 0.01 | 84 | 1015.1 |
| 20260509031542 | 49 | 166 | 0.0 | 0.0 | 0.00 | 0.01 | 0.01 | 83 | 1015.2 |
| 20260509030047 | 49 | 166 | 0.0 | 0.0 | 0.00 | 0.01 | 0.01 | 82 | 1015.1 |
| 20260509024540 | 49 | 166 | 0.0 | 0.0 | 0.00 | 0.01 | 0.01 | 82 | 1015.0 |
| 20260509023038 | 49 | 166 | 0.0 | 0.0 | 0.00 | 0.01 | 0.01 | 81 | 1014.8 |
| 20260509021538 | 49 | 166 | 0.0 | 0.0 | 0.00 | 0.01 | 0.01 | 80 | 1014.9 |
| 20260509020048 | 49 | 166 | 0.0 | 0.0 | 0.00 | 0.01 | 0.01 | 81 | 1014.6 |
| 20260509014544 | 49 | 166 | 0.0 | 0.0 | 0.00 | 0.01 | 0.01 | 79 | 1014.4 |
| 20260509013038 | 49 | 166 | 0.0 | 0.0 | 0.00 | 0.01 | 0.01 | 78 | 1014.2 |
| 20260509011533 | 49 | 166 | 0.0 | 0.0 | 0.00 | 0.01 | 0.01 | 77 | 1014.1 |
| 20260509010032 | 49 | 166 | 0.0 | 0.0 | 0.00 | 0.01 | 0.01 | 74 | 1014.1 |
| 20260509004532 | 51 | 166 | 0.0 | 0.0 | 0.00 | 0.01 | 0.01 | 73 | 1013.8 |
| 20260509003039 | 52 | 166 | 0.0 | 0.0 | 0.00 | 0.01 | 0.01 | 69 | 1013.6 |
| 20260509001531 | 53 | 166 | 0.0 | 0.0 | 0.00 | 0.01 | 0.01 | 66 | 1013.6 |
| 20260509000030 | 54 | 166 | 0.0 | 0.0 | 0.00 | 0.01 | 0.01 | 64 | 1013.4 |
| 20260508234531 | 56 | 166 | 0.0 | 0.0 | 0.00 | 0.01 | 0.01 | 59 | 1013.1 |
| 20260508233029 | 56 | 164 | 0.0 | 0.0 | 0.00 | 0.01 | 0.01 | 60 | 1013.2 |
| 20260508231530 | 56 | 167 | 0.0 | 0.9 | 0.00 | 0.01 | 0.01 | 61 | 1012.9 |
| 20260508230028 | 57 | 167 | 0.0 | 1.7 | 0.00 | 0.01 | 0.01 | 60 | 1012.9 |
| 20260508224532 | 57 | 194 | 0.0 | 1.7 | 0.00 | 0.01 | 0.01 | 60 | 1012.8 |
| 20260508223028 | 57 | 173 | 0.0 | 3.5 | 0.00 | 0.01 | 0.01 | 58 | 1012.7 |
| 20260508221527 | 57 | 157 | 0.0 | 3.5 | 0.00 | 0.01 | 0.01 | 57 | 1012.6 |
| 20260508220025 | 58 | 155 | 0.0 | 2.6 | 0.00 | 0.01 | 0.01 | 54 | 1012.6 |
| 20260508214525 | 58 | 283 | 0.9 | 3.5 | 0.00 | 0.01 | 0.01 | 54 | 1012.8 |
| 20260508213026 | 58 | 243 | 0.9 | 4.3 | 0.00 | 0.01 | 0.01 | 52 | 1013.0 |
| 20260508211522 | 58 | 81 | 0.0 | 3.5 | 0.00 | 0.01 | 0.01 | 51 | 1013.1 |
| 20260508210022 | 58 | 284 | 0.9 | 6.1 | 0.00 | 0.01 | 0.01 | 52 | 1013.1 |
| 20260508204621 | 58 | 273 | 0.0 | 10.4 | 0.00 | 0.01 | 0.01 | 51 | 1012.7 |
| 20260508203020 | 58 | 78 | 0.0 | 5.2 | 0.00 | 0.01 | 0.01 | 53 | 1012.8 |
| 20260508201522 | 58 | 22 | 1.7 | 4.3 | 0.00 | 0.01 | 0.01 | 53 | 1012.9 |
| 20260508200023 | 57 | 150 | 2.6 | 7.0 | 0.00 | 0.01 | 0.01 | 51 | 1013.0 |
| 20260508194518 | 56 | 179 | 0.9 | 4.3 | 0.00 | 0.01 | 0.01 | 60 | 1013.4 |
| 20260508193117 | 56 | 51 | 0.9 | 9.6 | 0.00 | 0.01 | 0.01 | 53 | 1013.4 |
| 20260508191524 | 59 | 19 | 0.9 | 6.1 | 0.00 | 0.01 | 0.01 | 48 | 1013.3 |
| 20260508190024 | 59 | 28 | 1.7 | 5.2 | 0.00 | 0.01 | 0.01 | 47 | 1013.0 |
| 20260508184516 | 59 | 49 | 1.7 | 4.3 | 0.00 | 0.01 | 0.01 | 50 | 1013.0 |
| 20260508183015 | 58 | 167 | 0.9 | 3.5 | 0.00 | 0.01 | 0.01 | 48 | 1013.0 |
| 20260508181517 | 59 | 271 | 1.7 | 6.1 | 0.00 | 0.01 | 0.01 | 45 | 1012.9 |
| 20260508180014 | 60 | 285 | 0.0 | 3.5 | 0.00 | 0.01 | 0.01 | 52 | 1012.7 |
| 20260508174513 | 60 | 264 | 0.9 | 7.0 | 0.00 | 0.01 | 0.01 | 48 | 1012.7 |
| 20260508173013 | 59 | 229 | 2.6 | 7.0 | 0.00 | 0.01 | 0.01 | 45 | 1012.9 |
| 20260508171519 | 59 | 192 | 0.0 | 2.6 | 0.00 | 0.01 | 0.01 | 46 | 1012.7 |
| 20260508170012 | 60 | 261 | 0.0 | 4.3 | 0.00 | 0.01 | 0.01 | 46 | 1012.7 |
| 20260508164512 | 61 | 31 | 0.0 | 7.0 | 0.00 | 0.01 | 0.01 | 44 | 1012.9 |
| 20260508163014 | 62 | 217 | 1.7 | 8.7 | 0.00 | 0.01 | 0.01 | 42 | 1013.1 |
| 20260508161507 | 61 | 141 | 0.9 | 3.5 | 0.00 | 0.01 | 0.01 | 42 | 1013.1 |
| 20260508160005 | 59 | 263 | 0.0 | 6.1 | 0.00 | 0.01 | 0.01 | 44 | 1013.4 |
| 20260508154505 | 60 | 99 | 1.7 | 7.0 | 0.00 | 0.01 | 0.01 | 43 | 1013.5 |
| 20260508153004 | 60 | 277 | 0.9 | 5.2 | 0.00 | 0.01 | 0.01 | 41 | 1013.4 |
| 20260508151501 | 59 | 265 | 0.0 | 2.6 | 0.00 | 0.01 | 0.01 | 47 | 1013.5 |
| 20260508150059 | 58 | 176 | 1.7 | 7.8 | 0.00 | 0.01 | 0.01 | 49 | 1013.7 |
| 20260508144558 | 57 | 283 | 0.0 | 3.5 | 0.00 | 0.01 | 0.01 | 46 | 1013.9 |
| 20260508143101 | 57 | 283 | 0.0 | 5.2 | 0.00 | 0.01 | 0.01 | 43 | 1014.0 |
| 20260508141613 | 55 | 13 | 1.7 | 5.2 | 0.00 | 0.01 | 0.01 | 60 | 1013.7 |
| 20260508140050 | 54 | 118 | 0.0 | 3.5 | 0.00 | 0.01 | 0.01 | 57 | 1013.8 |
| 20260508134555 | 53 | 264 | 0.0 | 3.5 | 0.00 | 0.01 | 0.01 | 59 | 1013.9 |
| 20260508133043 | 52 | 82 | 0.0 | 3.5 | 0.00 | 0.01 | 0.01 | 70 | 1014.0 |
| 20260508131640 | 51 | 265 | 0.0 | 0.0 | 0.00 | 0.01 | 0.01 | 71 | 1014.0 |
| 20260508130036 | 50 | 265 | 0.0 | 2.6 | 0.00 | 0.01 | 0.01 | 73 | 1014.0 |
| 20260508124534 | 50 | 262 | 0.0 | 4.3 | 0.00 | 0.01 | 0.01 | 77 | 1014.4 |
| 20260508123043 | 49 | 182 | 1.7 | 5.2 | 0.00 | 0.01 | 0.01 | 75 | 1014.4 |
| 20260508121532 | 47 | 65 | 0.9 | 3.5 | 0.00 | 0.01 | 0.01 | 81 | 1014.3 |
| 20260508120026 | 45 | 53 | 0.0 | 1.7 | 0.00 | 0.01 | 0.01 | 91 | 1014.3 |
| 20260508114523 | 44 | 339 | 0.0 | 0.0 | 0.00 | 0.01 | 0.01 | 94 | 1014.0 |
| 20260508113030 | 44 | 340 | 0.0 | 0.0 | 0.00 | 0.01 | 0.01 | 93 | 1013.9 |
| 20260508111520 | 43 | 341 | 0.0 | 0.0 | 0.00 | 0.01 | 0.01 | 93 | 1013.9 |
| 20260508110019 | 42 | 340 | 0.0 | 0.0 | 0.00 | 0.01 | 0.01 | 92 | 1013.8 |
| 20260508104521 | 42 | 341 | 0.0 | 0.0 | 0.00 | 0.01 | 0.01 | 92 | 1013.7 |
| 20260508103017 | 42 | 341 | 0.0 | 0.0 | 0.00 | 0.01 | 0.01 | 91 | 1013.5 |
| 20260508101519 | 43 | 341 | 0.0 | 0.0 | 0.00 | 0.01 | 0.01 | 91 | 1013.5 |
| 20260508100016 | 43 | 341 | 0.0 | 0.0 | 0.00 | 0.04 | 0.01 | 91 | 1013.4 |
| 20260508094514 | 44 | 341 | 0.0 | 0.0 | 0.00 | 0.04 | 0.01 | 91 | 1013.3 |
| 20260508093016 | 44 | 341 | 0.0 | 0.0 | 0.00 | 0.04 | 0.01 | 91 | 1013.2 |
| 20260508091519 | 44 | 341 | 0.0 | 0.0 | 0.00 | 0.04 | 0.01 | 91 | 1012.9 |
| 20260508090022 | 44 | 53 | 0.0 | 1.7 | 0.00 | 0.12 | 0.01 | 91 | 1012.7 |
| 20260508084510 | 44 | 61 | 0.0 | 0.9 | 0.00 | 0.12 | 0.01 | 91 | 1012.9 |
| 20260508083009 | 44 | 61 | 0.0 | 0.0 | 0.00 | 0.12 | 0.01 | 91 | 1012.8 |
| 20260508081510 | 44 | 61 | 0.0 | 0.0 | 0.00 | 0.12 | 0.01 | 90 | 1012.9 |